Weather History for Torrington, WY

Change the Weather History Date:

Wednesday, March 6, 2013

  Actual Average Record
Temperature  
Mean Temperature 42 °F 35 °F  
Max Temperature 65 °F 49 °F 73 °F (2012)
Min Temperature 18 °F 22 °F 10 °F (1999)
Degree Days  
Heating Degree Days 23 30  
Month to date heating degree days 166 182  
Since 1 July heating degree days 4779 5026  
Cooling Degree Days 0 0  
Month to date cooling degree days 0 0  
Year to date cooling degree days 0 0  
Moisture  
Dew Point 18 °F    
Average Humidity 48    
Maximum Humidity 80    
Minimum Humidity 16    
Precipitation  
Precipitation 0.00 in 0.02 in 0.20 in (2011)
Month to date precipitation 0.00 0.07  
Year to date precipitation 0.39 0.67  
Sea Level Pressure  
Sea Level Pressure 29.95 in    
Wind  
Wind Speed 12 mph (ESE)    
Max Wind Speed 26 mph    
Max Gust Speed 32 mph    
Visibility 10 miles    
Events      
T = Trace of Precipitation, MM = Missing Value Source: NWS Daily Summary

Daily Weather History Graph

Daily Weather History Graph

Search for Another Location

Airport:

Trip Planner

Search our weather history database for the weather conditions in past years. The results will help you decide how hot, cold, wet, or windy it might be!

Date:

Astronomy

Mar. 06, 2013 Rise Set
Actual Time 6:23 AM MST 5:53 PM MST
Civil Twilight 5:55 AM MST 6:21 PM MST
Nautical Twilight 5:22 AM MST 6:53 PM MST
Astronomical Twilight 4:50 AM MST 7:25 PM MST
Moon 2:38 AM MST (3/6) 12:33 PM MST (3/6)
Length of Visible Light 12h 25m
Length of Day
11h 29m
Waning Crescent, 29% of the Moon is Illuminated
Mar 6
Waning Crescent
Mar 11
New
Mar 19
First Quarter
Mar 27
Full
Apr 2
Last Quarter

Hourly Weather History & Observations

Time (MST) Temp. Windchill Dew Point Humidity Pressure Visibility Wind Dir Wind Speed Gust Speed Precip Events Conditions
12:53 AM 21.9 °F 11.0 °F 12.0 °F 66% 30.17 in 10.0 mi East 10.4 mph - N/A   Clear
1:53 AM 19.9 °F 7.9 °F 12.0 °F 71% 30.16 in 10.0 mi ESE 11.5 mph - N/A   Clear
2:53 AM 19.0 °F 6.8 °F 12.0 °F 74% 30.12 in 10.0 mi ESE 11.5 mph - N/A   Clear
3:53 AM 19.0 °F 6.8 °F 12.9 °F 77% 30.11 in 10.0 mi ESE 11.5 mph - N/A   Clear
4:53 AM 19.0 °F 6.1 °F 12.9 °F 77% 30.10 in 10.0 mi ESE 12.7 mph - N/A   Clear
5:53 AM 18.0 °F 7.7 °F 12.9 °F 81% 30.12 in 10.0 mi ESE 8.1 mph - N/A   Clear
6:53 AM 19.0 °F 8.2 °F 12.9 °F 77% 30.12 in 10.0 mi ESE 9.2 mph - N/A   Clear
7:53 AM 25.0 °F 17.1 °F 15.1 °F 66% 30.11 in 10.0 mi SE 6.9 mph - N/A   Clear
8:53 AM 30.0 °F 22.4 °F 17.1 °F 59% 30.07 in 10.0 mi SE 8.1 mph - N/A   Clear
9:53 AM 37.0 °F 33.3 °F 19.0 °F 48% 30.04 in 10.0 mi SSE 4.6 mph - N/A   Clear
10:53 AM 45.0 °F 40.6 °F 19.0 °F 36% 29.99 in 10.0 mi SE 8.1 mph - N/A   Clear
11:53 AM 51.1 °F - 19.0 °F 28% 29.94 in 10.0 mi SE 10.4 mph - N/A   Clear
12:53 PM 57.9 °F - 19.0 °F 22% 29.87 in 10.0 mi ESE 12.7 mph - N/A   Clear
1:53 PM 60.1 °F - 19.9 °F 21% 29.84 in 10.0 mi ESE 12.7 mph 20.7 mph N/A   Clear
2:53 PM 63.0 °F - 21.0 °F 20% 29.79 in 10.0 mi ESE 16.1 mph - N/A   Clear
3:26 PM 64.4 °F - 17.6 °F 16% 29.77 in 10.0 mi South 18.4 mph 27.6 mph N/A   Clear
3:53 PM 62.1 °F - 16.0 °F 17% 29.78 in 10.0 mi South 25.3 mph 31.1 mph N/A   Clear
4:53 PM 60.1 °F - 15.1 °F 17% 29.78 in 10.0 mi SSE 16.1 mph 24.2 mph N/A   Clear
5:53 PM 52.0 °F - 19.9 °F 28% 29.82 in 10.0 mi SE 17.3 mph - N/A   Clear
6:53 PM 46.0 °F 41.9 °F 19.9 °F 35% 29.87 in 10.0 mi ENE 8.1 mph - N/A   Clear
7:53 PM 42.1 °F 37.1 °F 23.0 °F 47% 29.87 in 10.0 mi SE 8.1 mph - N/A   Clear
8:53 PM 37.0 °F 29.3 °F 24.1 °F 59% 29.87 in 10.0 mi East 11.5 mph - N/A   Clear
9:53 PM 34.0 °F 25.5 °F 24.1 °F 67% 29.87 in 10.0 mi East 11.5 mph - N/A   Clear
10:53 PM 34.0 °F 25.0 °F 23.0 °F 64% 29.85 in 10.0 mi East 12.7 mph - N/A   Clear
11:53 PM 32.0 °F 23.6 °F 23.0 °F 69% 29.83 in 10.0 mi ESE 10.4 mph - N/A   Clear